Effective Sunday, March 17, 2024, the National Weather Service National Data Buoy Center will discontinue its Dial-A-Buoy Interactive Voice Response system. For more information, see Service Change Notice 24-06 (PDF).

Station 41038 - Wrightsville Beach Nearshore, NC (ILM2) Image indicating link to RSS feed of recent meteorological observations for station 41038


Conditions at 41038 as of
(9:08 am EST)
1408 GMT on 03/03/2024:
     

Click on the graph icon in the table below to see a time series plot of the last five days of that observation.

5-day plot - Wind Direction Wind Direction (WDIR): NE ( 40 deg true )
5-day plot - Wind Speed Wind Speed (WSPD): 3.9 kts
5-day plot - Wind Gust Wind Gust (GST): 5.8 kts
5-day plot - Atmospheric Pressure Atmospheric Pressure (PRES):30.22 in
5-day plot - Air Temperature Air Temperature (ATMP): 56.3 °F
5-day plot - Water Temperature Water Temperature (WTMP): 55.6 °F
5-day plot - Dew Point Dew Point (DEWP): 54.3 °F
5-day plot - Wind Speed at 10 Meters Wind Speed at 10 meters (WSPD10M): 3.9 kts
5-day plot - Wind Speed at 20 Meters Wind Speed at 20 meters (WSPD20M): 5.8 kts
5-day plot -  Wind Speed, Wind Gust and Atmospheric Pressure Combined plot of Wind Speed, Gust, and Air Pressure
Previous observations
TIME
(EST)
5-day plot - Wind Direction
WDIR
 
5-day plot - Wind Speed
WSPD
kts
5-day plot - Wind Gust
GST
kts
5-day plot - Wave Height
WVHT
ft
5-day plot - Dominant Wave Period
DPD
sec
5-day plot - Average Wave Period
APD
sec
5-day plot - Mean Wave Direction
MWD
 
5-day plot - Atmospheric Pressure
PRES
in
5-day plot - Pressure Tendency
PTDY
in
5-day plot - Air Temperature
ATMP
°F
5-day plot - Water Temperature
WTMP
°F
5-day plot - Dew Point
DEWP
°F
5-day plot - Salinity
SAL
psu
5-day plot - Visibility
VIS
nmi
5-day plot - Tide (above MLLW)
TIDE
ft
2024-03-03 08:08 am N 3.9 5.8----30.20- 55.9 55.4 54.0---
2024-03-03 07:08 am NW 1.9 5.8----30.19- 55.6 55.4 53.6---
2024-03-03 06:08 am E 1.9 3.9----30.16- 55.6 55.4 53.6---
2024-03-03 05:08 am NW 1.9 3.9----30.14- 55.6 55.4 53.6---
2024-03-03 04:08 am S 7.8 9.7----30.15- 55.8 55.6 53.8---
2024-03-03 03:08 amNNE 3.9 7.8----30.12- 55.9 55.6 54.0---
2024-03-03 02:08 amWSW 1.9 5.8----30.14- 56.8 55.6 54.9---
2024-03-03 01:08 am S 1.9 5.8----30.14- 56.5 55.6 54.5---
2024-03-03 12:08 am NW 3.9 7.8----30.13- 57.2 55.6 55.2---
2024-03-02 11:08 pm W 3.9 7.8----30.16- 58.1 55.6 55.8---
2024-03-02 10:08 pmWSW 3.9 5.8----30.13- 57.2 55.6 54.9---
2024-03-02 09:08 pmWSW 3.9 7.8----30.13- 57.9 55.6 55.6---
2024-03-02 08:08 pm SW 7.8 9.7----30.13- 57.6 55.8 55.2---
2024-03-02 07:08 pmSSW 7.8 9.7----30.11- 57.2 55.8 55.0---
2024-03-02 06:08 pmSSW 9.7 13.6----30.10- 57.4 55.9 55.2---
2024-03-02 05:08 pmSSW 7.8 9.7----30.07- 57.9 56.1 55.6---
2024-03-02 04:08 pm S 7.8 11.7----30.08- 57.6 55.9 55.4---
2024-03-02 03:08 pmSSW 7.8 9.7----30.09- 59.5 55.9 57.2---
2024-03-02 02:08 pmSSW 11.7 13.6----30.08- 59.4 55.6 57.0---
2024-03-02 01:08 pmSSW 7.8 11.7----30.12- 59.9 55.4 57.6---
2024-03-02 12:08 pm SW 7.8 11.7----30.12- 59.4 55.2 57.0---
2024-03-02 11:08 am SW 7.8 11.7----30.14- 59.0 55.0 56.7---
2024-03-02 10:08 am S 5.8 9.7----30.14- 58.5 54.9 56.1---